Location: Tabor
(49.4170°N, 14.6670°E)
Time: 08:26:50
(UTC+02:00)

ISS - Visible Passes

Search period start: 20 October 2021 00:00
Search period end: 30 October 2021 00:00
Orbit: 417 x 423 km, 51.6° (Epoch: 20 October)

Date Brightness Start Highest point End Pass type
(mag) Time Alt. Az. Time Alt. Az. Time Alt. Az.
23 Oct -1.4 06:15:41 10° SSW 06:18:21 22° SE 06:21:02 10° E visible
24 Oct -1.0 05:29:34 11° S 05:31:17 15° SE 05:33:18 10° E visible
25 Oct -2.9 06:17:45 14° SW 06:20:24 46° SSE 06:23:40 10° ENE visible
26 Oct -2.4 05:32:47 31° SSE 05:33:13 32° SSE 05:36:17 10° E visible
26 Oct -3.7 07:06:31 10° W 07:09:53 75° NNW 07:13:16 10° ENE visible
27 Oct -0.8 04:47:41 16° ESE 04:47:41 16° ESE 04:48:46 10° E visible
27 Oct -3.8 06:20:40 24° WSW 06:22:35 88° SSE 06:25:58 10° ENE visible
28 Oct -3.5 05:35:29 64° SE 05:35:29 64° SE 05:38:38 10° ENE visible
28 Oct -3.5 07:08:52 10° W 07:12:12 58° N 07:15:32 10° ENE visible
29 Oct -0.9 04:50:12 18° E 04:50:12 18° E 04:51:18 10° ENE visible
29 Oct -3.6 06:23:11 27° W 06:24:50 63° N 06:28:11 10° ENE visible
